This is the latest recevied weather packets stored in our database for station/object KK6MIG-13. If no packets are shown the sender has not sent any weather packets the latest 10 day(s).
| Time | Temp. | Humidity | Pressure | Rain* | Wind** | Luminosity | Snow |
|---|---|---|---|---|---|---|---|
| 1787776584 | 15° C | 1% | 1014.8 hPa | 0 mm | - | 930 W/m² | - |
| 1787776524 | 15.56° C | 1% | 1014.8 hPa | 0 mm | - | 928 W/m² | - |
| 1787776462 | 15.56° C | 1% | 1014.8 hPa | 0 mm | - | 928 W/m² | - |
| 1787776401 | 15.56° C | 1% | 1014.7 hPa | 0 mm | - | 939 W/m² | - |
| 1787776341 | 15.56° C | 2% | 1014.7 hPa | 0 mm | - | 974 W/m² | - |
| 1787776282 | 15.56° C | 4% | 1014.7 hPa | 0 mm | - | 888 W/m² | - |
| 1787776222 | 15.56° C | 1% | 1014.7 hPa | 0 mm | - | 958 W/m² | - |
| 1787776162 | 15.56° C | 6% | 1014.8 hPa | 0 mm | - | 967 W/m² | - |
| 1787776098 | 15.56° C | 3% | 1014.8 hPa | 0 mm | - | 991 W/m² | - |
| 1787776038 | 15.56° C | 6% | 1014.8 hPa | 0 mm | - | 1005 W/m² | - |
| 1787775978 | 15.56° C | 6% | 1014.8 hPa | 0 mm | - | 826 W/m² | - |
| 1787775918 | 15.56° C | 1% | 1014.8 hPa | 0 mm | - | 826 W/m² | - |
| 1787775875 | 15.56° C | 1% | 1014.8 hPa | 0 mm | - | 970 W/m² | - |
| 1787775871 | 15.56° C | 1% | 1014.8 hPa | 0 mm | - | 1016 W/m² | - |
| 1787775866 | 15.56° C | 1% | 1014.8 hPa | 0 mm | - | 893 W/m² | - |
| 1787775677 | 15.56° C | 1% | 1014.8 hPa | 0 mm | - | 953 W/m² | - |
| 1787775617 | 15.56° C | 2% | 1014.8 hPa | 0 mm | - | 884 W/m² | - |
| 1787775558 | 15.56° C | 8% | 1014.8 hPa | 0 mm | - | 969 W/m² | - |
| 1787775496 | 15.56° C | 7% | 1014.8 hPa | 0 mm | - | 958 W/m² | - |
| 1787775436 | 15.56° C | 6% | 1014.9 hPa | 0 mm | - | 942 W/m² | - |
| 1787775376 | 15.56° C | 4% | 1014.9 hPa | 0 mm | - | 942 W/m² | - |
| 1787775316 | 15.56° C | 6% | 1014.9 hPa | 0 mm | - | 942 W/m² | - |
| 1787775255 | 15.56° C | 4% | 1014.9 hPa | 0 mm | - | 962 W/m² | - |
| 1787775195 | 15.56° C | 5% | 1014.9 hPa | 0 mm | - | 946 W/m² | - |
| 1787775135 | 15.56° C | 3% | 1014.9 hPa | 0 mm | - | 937 W/m² | - |
* Rain latest hour (hover to see other rain measurements)
** Current wind speed in m/s (hover to see current wind gust speed)